This is the latest recevied weather packets stored in our database for station/object IZ5MMH-4. If no packets are shown the sender has not sent any weather packets the latest 10 day(s).
| Time | Temp. | Humidity | Pressure | Rain* | Wind** | Luminosity | Snow |
|---|---|---|---|---|---|---|---|
| 1787747063 | 31.11° C | 67% | 1017.7 hPa | - | - | - | - |
| 1787746464 | 31.11° C | 68% | 1018 hPa | - | - | - | - |
| 1787745863 | 31.11° C | 68% | 1017.8 hPa | - | - | - | - |
| 1787745264 | 31.11° C | 68% | 1017.8 hPa | - | - | - | - |
| 1787744664 | 31.11° C | 67% | 1017.8 hPa | - | - | - | - |
| 1787744064 | 30.56° C | 70% | 1018 hPa | - | - | - | - |
| 1787743463 | 30.56° C | 67% | 1018.1 hPa | - | - | - | - |
| 1787742864 | 30.56° C | 69% | 1018.1 hPa | - | - | - | - |
| 1787742263 | 30.56° C | 68% | 1018.2 hPa | - | - | - | - |
| 1787741664 | 30° C | 69% | 1018.3 hPa | - | - | - | - |
| 1787741063 | 30° C | 67% | 1018.4 hPa | - | - | - | - |
| 1787740464 | 30° C | 68% | 1018.5 hPa | - | - | - | - |
| 1787739863 | 30° C | 67% | 1018.6 hPa | - | - | - | - |
| 1787739264 | 30° C | 70% | 1018.5 hPa | - | - | - | - |
| 1787738664 | 30° C | 70% | 1018.6 hPa | - | - | - | - |
| 1787738063 | 29.44° C | 72% | 1018.6 hPa | - | - | - | - |
| 1787737463 | 29.44° C | 78% | 1018.5 hPa | - | - | - | - |
| 1787736864 | 29.44° C | 76% | 1018.5 hPa | - | - | - | - |
| 1787736264 | 28.89° C | 78% | 1018.5 hPa | - | - | - | - |
| 1787735663 | 28.89° C | 79% | 1018.3 hPa | - | - | - | - |
| 1787735063 | 28.89° C | 79% | 1018.3 hPa | - | - | - | - |
| 1787734464 | 28.89° C | 83% | 1018.3 hPa | - | - | - | - |
| 1787733863 | 28.33° C | 82% | 1018.2 hPa | - | - | - | - |
| 1787733263 | 28.33° C | 85% | 1018 hPa | - | - | - | - |
| 1787732663 | 28.33° C | 87% | 1017.9 hPa | - | - | - | - |
* Rain since midnight (hover to see other rain measurements)
** Current wind speed in m/s (hover to see current wind gust speed)